FW9422 Weather Reports


Display with metric or nautical units.
time (UTC)temp
F
wind
direction
speed
MPH
gust
MPH
rain 1hr
in
rain 24hr
in
rain mn
in
humidity
%
barometer
mb
20260506232058 74 304 4.0 10.0 0.00 0.00 0.00 57 1017.5
20260506231557 74 282 5.0 11.0 0.00 0.00 0.00 56 1017.7
20260506231059 74 32 4.0 12.0 0.00 0.00 0.00 56 1017.7
20260506230558 74 360 6.0 12.0 0.00 0.00 0.00 55 1017.7
20260506230104 74 309 5.0 13.0 0.00 0.00 0.00 56 1017.7
20260506225557 74 352 5.0 13.0 0.00 0.00 0.00 56 1017.9
20260506225057 74 360 6.0 11.0 0.00 0.00 0.00 55 1017.9
20260506224557 74 360 6.0 11.0 0.00 0.00 0.00 56 1017.9
20260506224056 74 22 5.0 11.0 0.00 0.00 0.00 56 1017.8
20260506223556 74 329 6.0 11.0 0.00 0.00 0.00 56 1017.9
20260506223059 74 308 5.0 10.0 0.00 0.00 0.00 55 1017.9
20260506222556 75 23 4.0 10.0 0.00 0.00 0.00 54 1017.9
20260506222058 75 331 5.0 10.0 0.00 0.00 0.00 55 1018.0
20260506221556 75 19 5.0 10.0 0.00 0.00 0.00 53 1018.1
20260506221056 75 299 4.0 9.0 0.00 0.00 0.00 53 1018.1
20260506220556 75 302 3.0 9.0 0.00 0.00 0.00 53 1018.2
20260506220058 76 5 4.0 9.0 0.00 0.00 0.00 52 1018.3
20260506215558 75 352 3.0 9.0 0.00 0.00 0.00 52 1018.4
20260506215057 75 352 3.0 9.0 0.00 0.00 0.00 52 1018.4
20260506214555 76 35 2.0 8.0 0.00 0.00 0.00 53 1018.4
20260506214056 75 30 4.0 8.0 0.00 0.00 0.00 52 1018.6
20260506213557 76 5 3.0 9.0 0.00 0.00 0.00 52 1018.7
20260506213055 74 227 1.0 9.0 0.00 0.00 0.00 54 1018.7
20260506212557 75 304 3.0 9.0 0.00 0.00 0.00 53 1018.9
20260506212057 74 261 1.0 7.0 0.00 0.00 0.00 55 1018.9
20260506211559 74 294 2.0 8.0 0.00 0.00 0.00 55 1018.8
20260506211056 73 0 3.0 8.0 0.00 0.00 0.00 56 1019.0
20260506210557 73 339 2.0 8.0 0.00 0.00 0.00 55 1019.2
20260506210058 74 290 3.0 7.0 0.00 0.00 0.00 54 1019.2
20260506205558 73 306 3.0 7.0 0.00 0.00 0.00 54 1019.3
20260506205056 73 343 1.0 8.0 0.00 0.00 0.00 56 1019.2
20260506204603 73 318 3.0 8.0 0.00 0.00 0.00 55 1019.4
20260506204058 73 304 3.0 7.0 0.00 0.00 0.00 55 1019.4
20260506203559 74 348 2.0 8.0 0.00 0.00 0.00 54 1019.5
20260506203112 73 347 1.0 8.0 0.00 0.00 0.00 56 1019.5
20260506202559 73 284 3.0 8.0 0.00 0.00 0.00 55 1019.5
20260506202059 72 322 2.0 6.0 0.00 0.00 0.00 56 1019.7
20260506201620 73 255 2.0 8.0 0.00 0.00 0.00 55 1019.7
20260506201059 73 343 1.0 8.0 0.00 0.00 0.00 55 1019.8
20260506200558 71 257 4.0 8.0 0.00 0.00 0.00 56 1019.8
20260506200059 72 298 2.0 9.0 0.00 0.00 0.00 57 1019.7
20260506195559 71 0 2.0 9.0 0.00 0.00 0.00 59 1019.9
20260506195058 71 327 2.0 9.0 0.00 0.00 0.00 59 1019.7
20260506194557 71 0 4.0 9.0 0.00 0.00 0.00 57 1019.8
20260506194101 71 279 2.0 8.0 0.00 0.00 0.00 58 1019.9
20260506193559 71 352 2.0 8.0 0.00 0.00 0.00 59 1019.9
20260506193057 71 24 1.0 8.0 0.00 0.00 0.00 59 1019.9
20260506192559 70 0 2.0 8.0 0.00 0.00 0.00 59 1020.1
20260506192059 70 273 3.0 8.0 0.00 0.00 0.00 60 1020.1
20260506191559 70 352 2.0 8.0 0.00 0.00 0.00 61 1020.1
20260506191059 69 302 3.0 6.0 0.00 0.00 0.00 61 1020.2
20260506190559 69 335 2.0 8.0 0.00 0.00 0.00 62 1020.2
20260506190057 69 306 2.0 10.0 0.00 0.00 0.00 61 1020.1
20260506185559 68 0 2.0 10.0 0.00 0.00 0.00 64 1020.3
20260506185059 68 307 2.0 7.0 0.00 0.00 0.00 63 1020.2
20260506184603 68 277 2.0 7.0 0.00 0.00 0.00 64 1020.3
20260506184058 67 303 2.0 5.0 0.00 0.00 0.00 63 1020.3
20260506183559 68 348 1.0 8.0 0.00 0.00 0.00 63 1020.2
20260506183101 67 92 3.0 8.0 0.00 0.00 0.00 63 1020.3
20260506182559 67 352 2.0 4.0 0.00 0.00 0.00 65 1020.4
20260506182059 67 290 1.0 7.0 0.00 0.00 0.00 65 1020.4
20260506181601 67 266 3.0 7.0 0.00 0.00 0.00 65 1020.4
20260506181059 66 261 0.0 5.0 0.00 0.00 0.00 67 1020.5
20260506180559 65 337 1.0 8.0 0.00 0.00 0.00 67 1020.5
20260506180100 65 0 2.0 8.0 0.00 0.00 0.00 67 1020.4
20260506175559 65 313 2.0 8.0 0.00 0.00 0.00 68 1020.5
20260506175057 65 274 2.0 7.0 0.00 0.00 0.00 68 1020.4
20260506174559 64 0 1.0 6.0 0.00 0.00 0.00 69 1020.4
20260506174058 64 334 2.0 7.0 0.00 0.00 0.00 70 1020.4
20260506173557 63 294 2.0 7.0 0.00 0.00 0.00 70 1020.5
20260506173128 63 319 3.0 7.0 0.00 0.00 0.00 70 1020.7
20260506172556 64 312 2.0 4.0 0.00 0.00 0.00 70 1020.6
20260506172056 63 342 1.0 4.0 0.00 0.00 0.00 71 1020.5
20260506171558 62 223 0.0 6.0 0.00 0.00 0.00 72 1020.6
20260506171056 63 275 2.0 6.0 0.00 0.00 0.00 72 1020.7
20260506170557 62 247 1.0 6.0 0.00 0.00 0.00 72 1020.6
20260506170056 62 311 1.0 4.0 0.00 0.00 0.00 72 1020.6
20260506165557 62 304 1.0 4.0 0.00 0.00 0.00 73 1020.6
20260506165057 62 319 1.0 4.0 0.00 0.00 0.00 73 1020.6
20260506164556 62 342 0.0 5.0 0.00 0.00 0.00 73 1020.6
20260506164056 62 0 0.0 5.0 0.00 0.00 0.00 74 1020.6
20260506163557 62 185 1.0 4.0 0.00 0.00 0.00 74 1020.6
20260506163109 61 269 0.0 5.0 0.00 0.00 0.00 75 1020.7
20260506162556 61 310 1.0 5.0 0.00 0.00 0.00 75 1020.6
20260506162056 61 283 2.0 5.0 0.00 0.00 0.00 75 1020.6
20260506161603 61 256 2.0 4.0 0.00 0.00 0.00 76 1020.6
20260506161056 61 288 1.0 4.0 0.00 0.00 0.00 76 1020.6
20260506160556 60 302 2.0 4.0 0.00 0.00 0.00 77 1020.7
20260506155600 59 295 0.0 3.0 0.00 0.00 0.00 80 1020.6
20260506155057 59 252 0.0 4.0 0.00 0.00 0.00 81 1020.6
20260506154605 58 345 1.0 4.0 0.00 0.00 0.00 81 1020.7
20260506154057 58 309 2.0 4.0 0.00 0.00 0.00 81 1020.6
20260506153557 58 271 1.0 4.0 0.00 0.00 0.00 82 1020.6
20260506153103 57 259 1.0 4.0 0.00 0.00 0.00 82 1020.6
20260506152557 57 249 1.0 4.0 0.00 0.00 0.00 82 1020.5
20260506152058 57 0 1.0 4.0 0.00 0.00 0.00 83 1020.5
20260506151758 57 264 0.0 3.0 0.00 0.00 0.00 83 1020.5
20260506151728 57 264 0.0 3.0 0.00 0.00 0.00 83 1020.5
20260506151657 57 264 0.0 3.0 0.00 0.00 0.00 83 1020.5
20260506151605 57 264 0.0 3.0 0.00 0.00 0.00 83 1020.5
20260506151056 57 0 0.0 2.0 0.00 0.00 0.00 83 1020.6
20260506150558 57 261 0.0 3.0 0.00 0.00 0.00 83 1020.6
20260506145600 56 0 0.0 3.0 0.00 0.00 0.00 83 1020.5
20260506145056 56 262 1.0 3.0 0.00 0.00 0.00 83 1020.6
20260506144559 56 0 1.0 3.0 0.00 0.00 0.00 83 1020.6
20260506144056 56 250 1.0 4.0 0.00 0.00 0.00 83 1020.6
20260506143557 56 278 0.0 4.0 0.00 0.00 0.00 83 1020.4
20260506143100 56 284 0.0 4.0 0.00 0.00 0.00 83 1020.3
20260506142557 56 246 0.0 2.0 0.00 0.00 0.00 83 1020.4
20260506142056 56 0 0.0 3.0 0.00 0.00 0.00 83 1020.4
20260506141611 56 0 1.0 3.0 0.00 0.00 0.00 83 1020.3
20260506141057 56 0 0.0 3.0 0.00 0.00 0.00 83 1020.2
20260506140559 56 0 0.0 2.0 0.00 0.00 0.00 83 1020.2
20260506140104 56 272 0.0 2.0 0.00 0.00 0.00 83 1020.2
20260506135556 56 261 1.0 4.0 0.00 0.00 0.00 83 1020.2
20260506135057 56 0 0.0 4.0 0.00 0.00 0.00 83 1020.0
20260506134602 56 0 0.0 3.0 0.00 0.00 0.00 83 1019.9
20260506134057 56 273 1.0 3.0 0.00 0.00 0.00 83 1019.8
20260506133559 56 0 0.0 3.0 0.00 0.00 0.00 83 1019.8
20260506133102 56 0 1.0 5.0 0.00 0.00 0.00 83 1019.7
20260506132557 56 267 0.0 5.0 0.00 0.00 0.00 83 1019.7
20260506132057 56 288 1.0 5.0 0.00 0.00 0.00 83 1019.6
20260506131557 56 0 1.0 4.0 0.00 0.00 0.00 83 1019.6
20260506131057 56 0 0.0 4.0 0.00 0.00 0.00 83 1019.7
20260506130557 56 286 1.0 4.0 0.00 0.00 0.00 83 1019.6
20260506130055 56 279 1.0 3.0 0.00 0.00 0.00 83 1019.6
20260506125641 56 0 0.0 3.0 0.00 0.00 0.00 83 1019.5
20260506125056 56 0 0.0 2.0 0.00 0.00 0.00 83 1019.5
20260506124558 56 0 0.0 2.0 0.00 0.00 0.00 83 1019.4
20260506124058 56 0 0.0 2.0 0.00 0.00 0.00 83 1019.4
20260506123557 56 0 0.0 2.0 0.00 0.00 0.00 82 1019.4
20260506123057 56 0 0.0 1.0 0.00 0.00 0.00 82 1019.4
20260506122557 56 0 0.0 3.0 0.00 0.00 0.00 82 1019.4
20260506122058 56 0 0.0 3.0 0.00 0.00 0.00 82 1019.5
20260506121604 56 324 0.0 3.0 0.00 0.00 0.00 82 1019.4
20260506121056 56 290 0.0 1.0 0.00 0.00 0.00 82 1019.4
20260506120557 57 0 0.0 1.0 0.00 0.00 0.00 82 1019.3
20260506120111 56 0 0.0 1.0 0.00 0.00 0.00 82 1019.2
20260506115556 57 0 0.0 1.0 0.00 0.00 0.00 82 1019.2
20260506115057 57 0 0.0 1.0 0.00 0.00 0.00 82 1019.1
20260506114614 57 0 0.0 2.0 0.00 0.00 0.00 82 1019.2
20260506114056 57 0 0.0 2.0 0.00 0.00 0.00 82 1019.1
20260506113557 57 0 0.0 2.0 0.00 0.00 0.00 82 1019.1
20260506113057 57 0 0.0 2.0 0.00 0.00 0.00 82 1019.0
20260506112553 57 0 0.0 1.0 0.00 0.00 0.00 82 1019.0
20260506112057 57 0 0.0 3.0 0.00 0.00 0.00 82 1019.0
20260506111558 57 0 0.0 3.0 0.00 0.00 0.00 82 1019.0
20260506111057 57 0 0.0 3.0 0.00 0.00 0.00 82 1019.1
20260506110557 57 0 0.0 2.0 0.00 0.00 0.00 82 1019.0
20260506110058 57 289 0.0 1.0 0.00 0.00 0.00 82 1018.8
20260506105601 57 0 0.0 1.0 0.00 0.00 0.00 82 1018.9
20260506105056 57 0 0.0 1.0 0.00 0.00 0.00 82 1018.8
20260506104558 57 279 0.0 1.0 0.00 0.00 0.00 82 1018.8
20260506104057 57 0 0.0 2.0 0.00 0.00 0.00 82 1018.7
20260506103558 57 0 0.0 2.0 0.00 0.00 0.00 82 1018.8
20260506103057 57 294 0.0 2.0 0.00 0.00 0.00 82 1018.7
20260506102558 57 0 0.0 3.0 0.00 0.00 0.00 82 1018.8
20260506102056 57 0 0.0 3.0 0.00 0.00 0.00 82 1018.9
20260506101555 57 0 0.0 3.0 0.00 0.00 0.00 82 1018.8
20260506101057 57 274 0.0 2.0 0.00 0.00 0.00 82 1018.9
20260506100557 57 0 0.0 2.0 0.00 0.00 0.00 82 1018.9
20260506100055 57 0 0.0 0.0 0.00 0.00 0.00 82 1018.8
20260506095557 57 0 0.0 1.0 0.00 0.00 0.00 81 1018.7
20260506095057 57 0 0.0 1.0 0.00 0.00 0.00 81 1018.7
20260506094555 57 0 0.0 1.0 0.00 0.00 0.00 81 1018.7
20260506094057 57 274 0.0 0.0 0.00 0.00 0.00 81 1018.7
20260506093557 57 0 0.0 0.0 0.00 0.00 0.00 81 1018.7
20260506093113 57 0 0.0 2.0 0.00 0.00 0.00 81 1018.8
20260506092557 57 0 0.0 2.0 0.00 0.00 0.00 81 1018.9
20260506092057 57 0 0.0 2.0 0.00 0.00 0.00 81 1018.9
20260506091556 57 0 0.0 1.0 0.00 0.00 0.00 81 1018.9
20260506091053 57 287 0.0 1.0 0.00 0.00 0.00 81 1018.9
20260506090557 57 0 0.0 2.0 0.00 0.00 0.00 81 1018.9
20260506090126 57 0 0.0 4.0 0.00 0.00 0.00 81 1018.9
20260506085557 57 0 1.0 4.0 0.00 0.00 0.00 81 1018.8
20260506085056 57 303 0.0 3.0 0.00 0.00 0.00 81 1018.7
20260506084557 57 0 1.0 4.0 0.00 0.00 0.00 80 1018.8
20260506084058 57 290 0.0 4.0 0.00 0.00 0.00 80 1018.9
20260506083600 57 302 0.0 3.0 0.00 0.00 0.00 80 1019.0
20260506083100 57 0 0.0 4.0 0.00 0.00 0.00 80 1018.9
20260506082601 57 0 0.0 5.0 0.00 0.00 0.00 80 1018.9
20260506082058 57 320 0.0 5.0 0.00 0.00 0.00 80 1018.9
20260506081559 57 325 1.0 4.0 0.00 0.00 0.00 80 1018.9
20260506081057 57 0 1.0 3.0 0.00 0.00 0.00 80 1019.0
20260506080558 57 0 0.0 3.0 0.00 0.00 0.00 80 1018.9
20260506080110 57 0 0.0 2.0 0.00 0.00 0.00 80 1018.9
20260506073109 58 288 1.0 4.0 0.00 0.00 0.00 80 1018.6
20260506072601 58 314 1.0 4.0 0.00 0.00 0.00 80 1018.5
20260506072058 58 336 1.0 4.0 0.00 0.00 0.00 80 1018.5
20260506071555 58 288 1.0 4.0 0.00 0.00 0.00 80 1018.5
20260506071058 58 329 1.0 4.0 0.00 0.00 0.00 80 1018.5
20260506070558 58 0 0.0 3.0 0.00 0.00 0.00 80 1018.4
20260506062057 58 328 2.0 6.0 0.00 0.00 0.00 78 1018.2
20260506061603 58 330 2.0 6.0 0.00 0.00 0.00 78 1018.2
20260506061058 58 336 2.0 6.0 0.00 0.00 0.00 77 1018.1
20260506060558 58 331 1.0 4.0 0.00 0.00 0.00 77 1018.0
20260506051057 59 343 0.0 2.0 0.00 0.00 0.00 75 1017.9
20260506050557 59 340 0.0 2.0 0.00 0.00 0.00 75 1017.9
20260506045056 59 312 0.0 3.0 0.00 0.00 0.00 74 1017.8
20260506044611 59 323 0.0 3.0 0.00 0.00 0.00 74 1017.6
20260506044057 59 0 0.0 3.0 0.00 0.00 0.00 74 1017.6
20260506043600 59 308 0.0 4.0 0.00 0.00 0.00 74 1017.6
20260506043055 59 313 1.0 4.0 0.00 0.00 0.00 73 1017.4
20260506042557 59 279 0.0 3.0 0.00 0.00 0.00 73 1017.6
20260506042057 59 0 0.0 3.0 0.00 0.00 0.00 73 1017.4
20260506041609 59 319 0.0 3.0 0.00 0.00 0.00 73 1017.3
20260506041059 59 0 0.0 3.0 0.00 0.00 0.00 73 1017.2
20260506040557 59 0 0.0 3.0 0.00 0.00 0.00 73 1017.2
20260506035557 59 279 0.0 3.0 0.00 0.00 0.00 73 1017.1
20260506035058 59 0 0.0 3.0 0.00 0.00 0.00 73 1017.0
20260506034601 59 0 0.0 3.0 0.00 0.00 0.00 73 1017.0
20260506034057 59 303 0.0 2.0 0.00 0.00 0.00 73 1016.9
20260506033557 59 0 0.0 2.0 0.00 0.00 0.00 73 1016.8
20260506033057 60 0 0.0 2.0 0.00 0.00 0.00 73 1016.7
20260506032557 60 290 0.0 3.0 0.00 0.00 0.00 73 1016.6
20260506032057 60 0 0.0 4.0 0.00 0.00 0.00 73 1016.6
20260506031600 60 0 0.0 4.0 0.00 0.00 0.00 73 1016.6
20260506031057 60 0 1.0 4.0 0.00 0.00 0.00 73 1016.5
20260506030556 60 294 1.0 3.0 0.00 0.00 0.00 73 1016.5
20260506030056 60 302 0.0 4.0 0.00 0.00 0.00 73 1016.4
20260506025557 60 333 0.0 4.0 0.00 0.00 0.00 73 1016.3
20260506025057 60 261 2.0 4.0 0.00 0.00 0.00 73 1016.3
20260506024608 60 327 0.0 3.0 0.00 0.00 0.00 73 1016.3
20260506024058 60 0 0.0 3.0 0.00 0.00 0.00 73 1016.0
20260506023558 60 280 0.0 4.0 0.00 0.00 0.00 73 1016.0
20260506023058 60 0 0.0 4.0 0.00 0.00 0.00 72 1016.1
20260506022557 60 317 0.0 4.0 0.00 0.00 0.00 72 1016.0
20260506022057 60 0 1.0 4.0 0.00 0.00 0.00 72 1016.0
20260506021556 60 272 0.0 4.0 0.00 0.00 0.00 72 1016.0
20260506021059 60 327 1.0 3.0 0.00 0.00 0.00 72 1016.0
20260506020556 60 255 1.0 5.0 0.00 0.00 0.00 72 1015.9
20260506020123 60 261 1.0 5.0 0.00 0.00 0.00 72 1015.9
20260506015557 60 279 1.0 5.0 0.00 0.00 0.00 72 1016.0
20260506015058 60 306 0.0 4.0 0.00 0.00 0.00 72 1016.0
20260506014557 61 281 1.0 3.0 0.00 0.00 0.00 72 1016.0
20260506014100 61 0 0.0 4.0 0.00 0.00 0.00 72 1016.1
20260506013557 61 0 0.0 4.0 0.00 0.00 0.00 71 1016.1
20260506013056 61 268 1.0 6.0 0.00 0.00 0.00 71 1016.0
20260506012557 61 278 1.0 6.0 0.00 0.00 0.00 71 1016.1
20260506012059 61 286 0.0 6.0 0.00 0.00 0.00 71 1015.9
20260506011600 61 312 2.0 8.0 0.00 0.00 0.00 70 1016.0
20260506011057 61 299 0.0 8.0 0.00 0.00 0.00 70 1015.9
20260506010557 62 270 2.0 8.0 0.00 0.00 0.00 70 1015.8
20260506010057 62 241 2.0 7.0 0.00 0.00 0.00 70 1015.8
20260506005557 62 0 1.0 6.0 0.00 0.00 0.00 69 1015.8
20260506005057 62 0 0.0 6.0 0.00 0.00 0.00 69 1015.8
20260506004557 63 275 1.0 4.0 0.00 0.00 0.00 68 1015.8
20260506004057 63 0 0.0 1.0 0.00 0.00 0.00 68 1015.9
20260506003558 63 0 0.0 1.0 0.00 0.00 0.00 68 1015.7
20260506003057 63 0 0.0 1.0 0.00 0.00 0.00 68 1015.8
20260506002557 63 0 0.0 1.0 0.00 0.00 0.00 68 1015.6
20260506002057 63 0 0.0 1.0 0.00 0.00 0.00 67 1015.6
20260506001606 63 194 0.0 1.0 0.00 0.00 0.00 68 1015.6
20260506001058 63 0 0.0 1.0 0.00 0.00 0.00 68 1015.5
20260506000601 63 0 0.0 5.0 0.00 0.00 0.00 68 1015.4
20260506000125 63 0 1.0 5.0 0.00 0.00 0.00 68 1015.5
20260505235558 63 321 1.0 4.0 0.00 0.00 0.00 67 1015.5
20260505235058 63 0 1.0 4.0 0.00 0.00 0.00 67 1015.5
20260505234615 63 0 0.0 2.0 0.00 0.00 0.00 67 1015.4
20260505234058 63 0 0.0 5.0 0.00 0.00 0.00 67 1015.5
20260505233558 64 0 1.0 5.0 0.00 0.00 0.00 66 1015.6
20260505233058 64 304 1.0 4.0 0.00 0.00 0.00 66 1015.6
20260505232558 64 281 0.0 2.0 0.00 0.00 0.00 65 1015.6